EZY1903 EGPH-EGKK

Flight info

Callsign EZY1903
Flight time 1h 9m
Altitude 35000
Route GOSAM P600 FENIK L612 NAVSO DCT ADZOP DCT EGTOC DCT KEPAD L151 DISIT
Aircraft A320/M-SDE3FGHIRWY/LB1

Departure

Time 2026-05-04 19:19
Airport Edinburgh Airport (EGPH)

Arrival

Time 2026-05-04 20:29
Airport London Gatwick Airport (EGKK)
Time Latitude Longitude Altitude Speed Heading
2026-05-04 18:58 55.94752 -3.36613 117 ft 0 kts 89°
2026-05-04 19:12 55.94752 -3.36615 116 ft 2 kts 89°
2026-05-04 19:12 55.94750 -3.36660 115 ft 4 kts 82°
2026-05-04 19:13 55.94745 -3.36706 112 ft 4 kts 60°
2026-05-04 19:13 55.94730 -3.36731 113 ft 2 kts 347°
2026-05-04 19:13 55.94728 -3.36730 113 ft 0 kts 345°
2026-05-04 19:15 55.94745 -3.36740 114 ft 10 kts 339°
2026-05-04 19:15 55.94829 -3.36777 116 ft 14 kts 357°
2026-05-04 19:15 55.94910 -3.36819 116 ft 10 kts 335°
2026-05-04 19:16 55.94965 -3.36777 116 ft 9 kts 51°
2026-05-04 19:16 55.95013 -3.36636 112 ft 19 kts 59°
2026-05-04 19:16 55.95080 -3.36437 114 ft 18 kts 59°
2026-05-04 19:16 55.95140 -3.36257 114 ft 16 kts 59°
2026-05-04 19:17 55.95197 -3.36089 111 ft 15 kts 59°
2026-05-04 19:17 55.95250 -3.35937 115 ft 14 kts 58°
2026-05-04 19:17 55.95298 -3.35799 115 ft 12 kts 58°
2026-05-04 19:17 55.95356 -3.35624 115 ft 20 kts 59°
2026-05-04 19:18 55.95418 -3.35434 114 ft 14 kts 57°
2026-05-04 19:18 55.95500 -3.35437 112 ft 14 kts 330°
2026-05-04 19:18 55.95567 -3.35562 113 ft 16 kts 262°
2026-05-04 19:18 55.95555 -3.35615 112 ft 0 kts 242°
2026-05-04 19:19 55.95484 -3.35820 111 ft 55 kts 238°
2026-05-04 19:19 55.95173 -3.36764 113 ft 118 kts 237°
2026-05-04 19:19 55.94654 -3.38214 382 ft 144 kts 241°
2026-05-04 19:19 55.94139 -3.39679 1109 ft 143 kts 241°
2026-05-04 19:20 55.93601 -3.41250 1676 ft 156 kts 243°
2026-05-04 19:20 55.92999 -3.43012 2069 ft 177 kts 242°
2026-05-04 19:20 55.92319 -3.45009 2402 ft 200 kts 242°
2026-05-04 19:20 55.91559 -3.47235 2813 ft 221 kts 242°
2026-05-04 19:21 55.90727 -3.49723 3309 ft 244 kts 246°
2026-05-04 19:21 55.90271 -3.52629 4094 ft 250 kts 262°
2026-05-04 19:21 55.89962 -3.55720 5040 ft 256 kts 262°
2026-05-04 19:21 55.89648 -3.58868 6014 ft 259 kts 262°
2026-05-04 19:22 55.89332 -3.62058 6958 ft 262 kts 262°
2026-05-04 19:22 55.89013 -3.65274 7882 ft 265 kts 261°
2026-05-04 19:22 55.88687 -3.68545 8801 ft 268 kts 261°
2026-05-04 19:22 55.88358 -3.71834 9749 ft 271 kts 261°
2026-05-04 19:23 55.88024 -3.75160 10374 ft 285 kts 261°
2026-05-04 19:23 55.87657 -3.78798 10678 ft 309 kts 261°
2026-05-04 19:23 55.87266 -3.82699 11042 ft 328 kts 261°
2026-05-04 19:23 55.86864 -3.86736 11722 ft 334 kts 261°
2026-05-04 19:24 55.86460 -3.90795 12490 ft 339 kts 261°
2026-05-04 19:24 55.86046 -3.94944 13265 ft 342 kts 261°
2026-05-04 19:24 55.85622 -3.99158 14022 ft 347 kts 261°
2026-05-04 19:24 55.85192 -4.03409 14704 ft 350 kts 261°
2026-05-04 19:25 55.84757 -4.07681 15413 ft 353 kts 260°
2026-05-04 19:25 55.83992 -4.11868 16069 ft 359 kts 244°
2026-05-04 19:25 55.82507 -4.15416 16731 ft 367 kts 226°
2026-05-04 19:25 55.80437 -4.18183 17380 ft 373 kts 218°
2026-05-04 19:26 55.78282 -4.20807 18048 ft 376 kts 218°
2026-05-04 19:26 55.75992 -4.23175 18651 ft 384 kts 207°
2026-05-04 19:26 55.73467 -4.24671 19184 ft 392 kts 195°
2026-05-04 19:26 55.70738 -4.25160 19737 ft 400 kts 182°
2026-05-04 19:27 55.67949 -4.24542 20289 ft 408 kts 169°
2026-05-04 19:27 55.65244 -4.22890 20822 ft 415 kts 159°
2026-05-04 19:27 55.62667 -4.20505 21366 ft 420 kts 154°
2026-05-04 19:27 55.60106 -4.17979 21892 ft 422 kts 154°
2026-05-04 19:28 55.57522 -4.15439 22411 ft 425 kts 154°
2026-05-04 19:28 55.54920 -4.12895 22927 ft 428 kts 154°
2026-05-04 19:28 55.52290 -4.10343 23418 ft 431 kts 154°
2026-05-04 19:28 55.49685 -4.07820 23869 ft 433 kts 154°
2026-05-04 19:29 55.47035 -4.05249 24273 ft 436 kts 154°
2026-05-04 19:29 55.44369 -4.02663 24672 ft 438 kts 154°
2026-05-04 19:29 55.41690 -4.00067 25067 ft 441 kts 154°
2026-05-04 19:29 55.38996 -3.97463 25466 ft 443 kts 154°
2026-05-04 19:30 55.36282 -3.94839 25851 ft 445 kts 154°
2026-05-04 19:30 55.33560 -3.92207 26245 ft 448 kts 154°
2026-05-04 19:30 55.30815 -3.89558 26617 ft 450 kts 154°
2026-05-04 19:30 55.28096 -3.86943 26981 ft 453 kts 154°
2026-05-04 19:31 55.25317 -3.84274 27346 ft 455 kts 154°
2026-05-04 19:31 55.22497 -3.81716 27705 ft 456 kts 159°
2026-05-04 19:31 55.19512 -3.79811 28042 ft 455 kts 165°
2026-05-04 19:31 55.16520 -3.78174 28375 ft 457 kts 165°
2026-05-04 19:32 55.13478 -3.76512 28698 ft 460 kts 165°
2026-05-04 19:32 55.10408 -3.74834 29028 ft 462 kts 165°
2026-05-04 19:32 55.07323 -3.73148 29352 ft 464 kts 165°
2026-05-04 19:32 55.04235 -3.71464 29672 ft 466 kts 165°
2026-05-04 19:33 55.01152 -3.69782 29984 ft 469 kts 165°
2026-05-04 19:33 54.98028 -3.68082 30345 ft 468 kts 165°
2026-05-04 19:33 54.94902 -3.66384 30739 ft 467 kts 165°
2026-05-04 19:33 54.91836 -3.64715 31124 ft 466 kts 164°
2026-05-04 19:34 54.88737 -3.63028 31502 ft 465 kts 164°
2026-05-04 19:34 54.85651 -3.61358 31877 ft 464 kts 164°
2026-05-04 19:34 54.82561 -3.59695 32254 ft 463 kts 165°
2026-05-04 19:34 54.79515 -3.58061 32633 ft 462 kts 164°
2026-05-04 19:35 54.76447 -3.56413 33019 ft 461 kts 164°
2026-05-04 19:35 54.73385 -3.54768 33397 ft 460 kts 164°
2026-05-04 19:35 54.70329 -3.53129 33777 ft 459 kts 164°
2026-05-04 19:35 54.67281 -3.51496 34151 ft 458 kts 164°
2026-05-04 19:36 54.65215 -3.50389 34375 ft 458 kts 164°
2026-05-04 19:36 54.62215 -3.48780 34696 ft 457 kts 164°
2026-05-04 19:36 54.59180 -3.47155 34976 ft 457 kts 164°
2026-05-04 19:37 54.53100 -3.43922 35062 ft 457 kts 164°
2026-05-04 19:37 54.47023 -3.40706 35063 ft 456 kts 163°
2026-05-04 19:38 54.40944 -3.37498 35064 ft 456 kts 163°
2026-05-04 19:38 54.34909 -3.34308 35064 ft 457 kts 163°
2026-05-04 19:39 54.28812 -3.31106 35065 ft 457 kts 163°
2026-05-04 19:39 54.22717 -3.27921 35063 ft 457 kts 163°
2026-05-04 19:40 54.16584 -3.25321 35058 ft 456 kts 174°
2026-05-04 19:40 54.10255 -3.24333 35053 ft 456 kts 175°
2026-05-04 19:41 54.03926 -3.23323 35054 ft 457 kts 174°
2026-05-04 19:41 53.97707 -3.21225 35062 ft 457 kts 159°
2026-05-04 19:42 53.91754 -3.17386 34967 ft 458 kts 158°
2026-05-04 19:42 53.88808 -3.15490 34659 ft 458 kts 158°
2026-05-04 19:42 53.85822 -3.13575 34671 ft 459 kts 158°
2026-05-04 19:42 53.82835 -3.11653 34999 ft 458 kts 158°
2026-05-04 19:43 53.79862 -3.09740 35080 ft 457 kts 158°
2026-05-04 19:43 53.73911 -3.05922 35085 ft 456 kts 158°
2026-05-04 19:44 53.68018 -3.02161 35084 ft 455 kts 158°
2026-05-04 19:44 53.62087 -2.98387 35083 ft 455 kts 158°
2026-05-04 19:45 53.56159 -2.94624 35080 ft 454 kts 158°
2026-05-04 19:45 53.50270 -2.90903 35085 ft 454 kts 158°
2026-05-04 19:46 53.44342 -2.87180 35087 ft 454 kts 158°
2026-05-04 19:46 53.38419 -2.83456 35086 ft 454 kts 158°
2026-05-04 19:47 53.32542 -2.79760 35089 ft 454 kts 158°
2026-05-04 19:47 53.26613 -2.76054 35089 ft 454 kts 158°
2026-05-04 19:48 53.20697 -2.72369 35085 ft 453 kts 158°
2026-05-04 19:48 53.14781 -2.68683 35083 ft 453 kts 158°
2026-05-04 19:49 53.08915 -2.65045 35081 ft 453 kts 158°
2026-05-04 19:49 53.03000 -2.61390 35075 ft 453 kts 158°
2026-05-04 19:50 52.97088 -2.57749 35074 ft 452 kts 158°
2026-05-04 19:50 52.91214 -2.54158 35071 ft 451 kts 158°
2026-05-04 19:51 52.85325 -2.50558 35069 ft 451 kts 158°
2026-05-04 19:51 52.79611 -2.46357 35071 ft 448 kts 146°
2026-05-04 19:52 52.74431 -2.40651 35075 ft 447 kts 144°
2026-05-04 19:52 52.69256 -2.34948 35078 ft 446 kts 145°
2026-05-04 19:53 52.64121 -2.29305 34987 ft 447 kts 145°
2026-05-04 19:53 52.61526 -2.26457 34745 ft 446 kts 145°
2026-05-04 19:53 52.58940 -2.23627 34508 ft 446 kts 145°
2026-05-04 19:53 52.56349 -2.20795 34245 ft 446 kts 145°
2026-05-04 19:54 52.53748 -2.17956 33213 ft 451 kts 146°
2026-05-04 19:54 52.51127 -2.15098 32215 ft 455 kts 146°
2026-05-04 19:54 52.48475 -2.12211 31200 ft 458 kts 146°
2026-05-04 19:54 52.45835 -2.09347 30104 ft 463 kts 146°
2026-05-04 19:55 52.43116 -2.06402 28853 ft 467 kts 147°
2026-05-04 19:55 52.40420 -2.03480 28158 ft 459 kts 147°
2026-05-04 19:55 52.37775 -2.00611 27387 ft 454 kts 148°
2026-05-04 19:55 52.35151 -1.97774 26646 ft 448 kts 148°
2026-05-04 19:56 52.32598 -1.95021 25923 ft 442 kts 148°
2026-05-04 19:56 52.30034 -1.92260 25210 ft 438 kts 149°
2026-05-04 19:56 52.27500 -1.89532 24506 ft 434 kts 149°
2026-05-04 19:56 52.24992 -1.86835 23803 ft 430 kts 150°
2026-05-04 19:57 52.22499 -1.84164 23048 ft 426 kts 149°
2026-05-04 19:57 52.20035 -1.81529 22409 ft 420 kts 149°
2026-05-04 19:57 52.17605 -1.78925 21782 ft 415 kts 149°
2026-05-04 19:57 52.15206 -1.76357 21202 ft 409 kts 149°
2026-05-04 19:58 52.12840 -1.73834 20632 ft 404 kts 149°
2026-05-04 19:58 52.10499 -1.71338 20090 ft 399 kts 149°
2026-05-04 19:58 52.08219 -1.68912 19715 ft 396 kts 149°
2026-05-04 19:58 52.05906 -1.66457 19387 ft 395 kts 148°
2026-05-04 19:59 52.03603 -1.64015 19045 ft 394 kts 148°
2026-05-04 19:59 52.01310 -1.61589 18702 ft 392 kts 148°
2026-05-04 19:59 51.99027 -1.59170 18349 ft 391 kts 148°
2026-05-04 19:59 51.96755 -1.56764 17978 ft 389 kts 148°
2026-05-04 20:00 51.94491 -1.54367 17652 ft 388 kts 148°
2026-05-04 20:00 51.92235 -1.51983 17313 ft 386 kts 148°
2026-05-04 20:00 51.90006 -1.49632 16978 ft 385 kts 148°
2026-05-04 20:00 51.87763 -1.47270 16642 ft 383 kts 148°
2026-05-04 20:01 51.85534 -1.44929 16304 ft 382 kts 148°
2026-05-04 20:01 51.83311 -1.42597 15976 ft 380 kts 148°
2026-05-04 20:01 51.81089 -1.40272 15644 ft 379 kts 148°
2026-05-04 20:01 51.78877 -1.37959 15313 ft 377 kts 148°
2026-05-04 20:02 51.76677 -1.35653 14987 ft 376 kts 148°
2026-05-04 20:02 51.74486 -1.33355 14788 ft 375 kts 148°
2026-05-04 20:02 51.72294 -1.31068 14578 ft 374 kts 148°
2026-05-04 20:02 51.70109 -1.28794 14366 ft 373 kts 148°
2026-05-04 20:03 51.67956 -1.26553 14136 ft 372 kts 148°
2026-05-04 20:03 51.65779 -1.24290 13928 ft 371 kts 147°
2026-05-04 20:03 51.63609 -1.22035 13691 ft 370 kts 147°
2026-05-04 20:03 51.61445 -1.19788 13489 ft 369 kts 147°
2026-05-04 20:04 51.59286 -1.17549 13273 ft 368 kts 147°
2026-05-04 20:04 51.57138 -1.15321 13066 ft 367 kts 147°
2026-05-04 20:04 51.54992 -1.13100 12855 ft 366 kts 147°
2026-05-04 20:04 51.52851 -1.10890 12655 ft 365 kts 147°
2026-05-04 20:05 51.50745 -1.08718 12455 ft 363 kts 148°
2026-05-04 20:05 51.48617 -1.06526 12237 ft 362 kts 148°
2026-05-04 20:05 51.46497 -1.04342 12039 ft 361 kts 148°
2026-05-04 20:05 51.44380 -1.02170 11831 ft 360 kts 148°
2026-05-04 20:06 51.42274 -1.00013 11630 ft 358 kts 148°
2026-05-04 20:06 51.40180 -0.97864 11421 ft 357 kts 148°
2026-05-04 20:06 51.38091 -0.95724 11233 ft 356 kts 148°
2026-05-04 20:06 51.36051 -0.93635 11031 ft 355 kts 148°
2026-05-04 20:07 51.33966 -0.91503 10822 ft 346 kts 148°
2026-05-04 20:07 51.31971 -0.89462 10701 ft 331 kts 148°
2026-05-04 20:07 51.30070 -0.87521 10573 ft 318 kts 148°
2026-05-04 20:07 51.28240 -0.85652 10452 ft 306 kts 148°
2026-05-04 20:08 51.26479 -0.83853 10315 ft 295 kts 148°
2026-05-04 20:08 51.24781 -0.82121 10105 ft 289 kts 148°
2026-05-04 20:08 51.23087 -0.80399 10026 ft 288 kts 148°
2026-05-04 20:08 51.21399 -0.78685 9875 ft 287 kts 148°
2026-05-04 20:09 51.19718 -0.76979 9706 ft 286 kts 148°
2026-05-04 20:09 51.18056 -0.75292 9545 ft 285 kts 148°
2026-05-04 20:09 51.16383 -0.73599 9396 ft 284 kts 148°
2026-05-04 20:09 51.14711 -0.71912 9238 ft 284 kts 148°
2026-05-04 20:10 51.13043 -0.70227 9079 ft 283 kts 148°
2026-05-04 20:10 51.11383 -0.68551 8926 ft 282 kts 148°
2026-05-04 20:10 51.09729 -0.66883 8771 ft 281 kts 148°
2026-05-04 20:10 51.08073 -0.65214 8617 ft 281 kts 148°
2026-05-04 20:11 51.06806 -0.63912 8496 ft 280 kts 144°
2026-05-04 20:11 51.05493 -0.62006 8353 ft 280 kts 130°
2026-05-04 20:11 51.04427 -0.59424 8199 ft 279 kts 116°
2026-05-04 20:11 51.03574 -0.56652 8039 ft 279 kts 116°
2026-05-04 20:12 51.02721 -0.53921 7875 ft 279 kts 116°
2026-05-04 20:12 51.01856 -0.51165 7721 ft 278 kts 116°
2026-05-04 20:12 51.00990 -0.48417 7566 ft 277 kts 116°
2026-05-04 20:12 51.00123 -0.45673 7423 ft 277 kts 116°
2026-05-04 20:13 50.99261 -0.42939 7295 ft 277 kts 116°
2026-05-04 20:13 50.98402 -0.40212 7171 ft 276 kts 116°
2026-05-04 20:13 50.97553 -0.37516 7050 ft 276 kts 116°
2026-05-04 20:13 50.96694 -0.34790 6926 ft 275 kts 116°
2026-05-04 20:14 50.95837 -0.32075 6799 ft 275 kts 116°
2026-05-04 20:14 50.94978 -0.29368 6661 ft 275 kts 116°
2026-05-04 20:14 50.94118 -0.26665 6515 ft 274 kts 116°
2026-05-04 20:14 50.93260 -0.23963 6368 ft 274 kts 116°
2026-05-04 20:15 50.92406 -0.21265 6210 ft 273 kts 116°
2026-05-04 20:15 50.91552 -0.18575 6052 ft 273 kts 116°
2026-05-04 20:15 50.90701 -0.15906 5902 ft 266 kts 116°
2026-05-04 20:15 50.89898 -0.13388 5744 ft 254 kts 116°
2026-05-04 20:16 50.89115 -0.10934 5593 ft 244 kts 116°
2026-05-04 20:16 50.88488 -0.08495 5444 ft 236 kts 96°
2026-05-04 20:16 50.88793 -0.06021 5298 ft 231 kts 56°
2026-05-04 20:16 50.90027 -0.04480 5146 ft 230 kts 16°
2026-05-04 20:17 50.91593 -0.04594 4993 ft 231 kts 336°
2026-05-04 20:17 50.92837 -0.06212 4849 ft 234 kts 311°
2026-05-04 20:17 50.93803 -0.08259 4687 ft 235 kts 306°
2026-05-04 20:17 50.94709 -0.10424 4527 ft 235 kts 304°
2026-05-04 20:18 50.95616 -0.12584 4378 ft 234 kts 306°
2026-05-04 20:18 50.96542 -0.14711 4218 ft 234 kts 307°
2026-05-04 20:18 50.97484 -0.16803 4058 ft 230 kts 307°
2026-05-04 20:18 50.98413 -0.18819 3901 ft 222 kts 308°
2026-05-04 20:19 50.99312 -0.20738 3802 ft 215 kts 308°
2026-05-04 20:19 51.00200 -0.22615 3662 ft 209 kts 309°
2026-05-04 20:19 51.01067 -0.24434 3538 ft 203 kts 309°
2026-05-04 20:19 51.01867 -0.26239 3407 ft 198 kts 297°
2026-05-04 20:20 51.02326 -0.28277 3366 ft 194 kts 288°
2026-05-04 20:20 51.02680 -0.30324 3358 ft 194 kts 286°
2026-05-04 20:20 51.03019 -0.32388 3332 ft 193 kts 286°
2026-05-04 20:20 51.03318 -0.34481 3303 ft 194 kts 282°
2026-05-04 20:21 51.03555 -0.36584 3273 ft 194 kts 281°
2026-05-04 20:21 51.03782 -0.38697 3245 ft 193 kts 281°
2026-05-04 20:21 51.04226 -0.42899 3166 ft 194 kts 281°
2026-05-04 20:22 51.04450 -0.45011 3079 ft 194 kts 281°
2026-05-04 20:22 51.04603 -0.46447 3020 ft 195 kts 281°
2026-05-04 20:22 51.04825 -0.48535 2999 ft 194 kts 281°
2026-05-04 20:22 51.05054 -0.50630 2994 ft 186 kts 285°
2026-05-04 20:23 51.05684 -0.52281 2987 ft 172 kts 327°
2026-05-04 20:23 51.06762 -0.52996 3005 ft 165 kts 351°
2026-05-04 20:23 51.07880 -0.53067 3006 ft 162 kts 10°
2026-05-04 20:23 51.08945 -0.52542 3004 ft 160 kts 30°
2026-05-04 20:24 51.09825 -0.51488 3012 ft 158 kts 47°
2026-05-04 20:24 51.10430 -0.50024 3006 ft 158 kts 66°
2026-05-04 20:24 51.10723 -0.48328 3016 ft 160 kts 76°
2026-05-04 20:24 51.10966 -0.46609 3017 ft 160 kts 76°
2026-05-04 20:25 51.11210 -0.44880 3013 ft 160 kts 76°
2026-05-04 20:25 51.11453 -0.43151 2981 ft 160 kts 76°
2026-05-04 20:25 51.11696 -0.41421 2835 ft 160 kts 76°
2026-05-04 20:25 51.11936 -0.39706 2676 ft 158 kts 76°
2026-05-04 20:26 51.12174 -0.38005 2455 ft 157 kts 76°
2026-05-04 20:26 51.12407 -0.36339 2241 ft 155 kts 76°
2026-05-04 20:26 51.12641 -0.34666 2029 ft 149 kts 76°
2026-05-04 20:26 51.12855 -0.33132 1829 ft 135 kts 76°
2026-05-04 20:27 51.13055 -0.31700 1655 ft 130 kts 76°
2026-05-04 20:27 51.13250 -0.30299 1472 ft 128 kts 75°
2026-05-04 20:27 51.13444 -0.28909 1301 ft 128 kts 77°
2026-05-04 20:27 51.13634 -0.27541 1123 ft 128 kts 76°
2026-05-04 20:28 51.13785 -0.26479 978 ft 128 kts 76°
2026-05-04 20:28 51.13975 -0.25080 818 ft 129 kts 76°
2026-05-04 20:28 51.14169 -0.23678 648 ft 130 kts 76°
2026-05-04 20:28 51.14367 -0.22276 451 ft 129 kts 77°
2026-05-04 20:29 51.14556 -0.20876 246 ft 128 kts 75°
2026-05-04 20:29 51.14739 -0.19623 211 ft 98 kts 78°
2026-05-04 20:29 51.14846 -0.18868 207 ft 43 kts 79°
2026-05-04 20:29 51.14949 -0.18505 211 ft 28 kts 49°
2026-05-04 20:30 51.15037 -0.18328 210 ft 11 kts 54°
2026-05-04 20:30 51.15066 -0.18267 214 ft 0 kts 52°
2026-05-04 20:30 51.15071 -0.18258 212 ft 6 kts 51°
2026-05-04 20:30 51.15104 -0.18198 213 ft 1 kts 41°
2026-05-04 20:31 51.15161 -0.18196 205 ft 15 kts 351°
2026-05-04 20:31 51.15269 -0.18234 210 ft 17 kts 346°
2026-05-04 20:31 51.15386 -0.18280 209 ft 18 kts 347°
2026-05-04 20:31 51.15449 -0.18165 208 ft 16 kts 79°
2026-05-04 20:32 51.15474 -0.17981 205 ft 18 kts 78°
2026-05-04 20:32 51.15494 -0.17839 210 ft 6 kts 77°
2026-05-04 20:32 51.15502 -0.17781 205 ft 5 kts 77°
2026-05-04 20:32 51.15514 -0.17692 208 ft 9 kts 76°
2026-05-04 20:33 51.15563 -0.17678 205 ft 7 kts 349°
2026-05-04 20:33 51.15588 -0.17686 214 ft 1 kts 347°
2026-05-04 20:33 51.15588 -0.17687 214 ft 0 kts 347°